Location: Newark
(49.8969°N, 3.3422°E)
Time: 02:34:35
(UTC+00:00)

deb Explorer IX - Pass Details

Date: 19 January 2020
Orbit: 549 x 1099 km, 38.8° (Epoch: 25 February)

Event Time Altitude Azimuth Distance (km) Brightness Sun altitude
Rises 03:18:59 0° 259° (WSW) 3,825 - -40.7°
Reaches altitude 10° 03:22:11 10° 248° (WSW) 2,809 - -40.2°
Maximum altitude 03:27:47 28° 193° (SSW) 1,705 - -39.3°
Exits shadow 03:32:29 11° 139° (SE) 2,415 ? -38.6°
Drops below altitude 10° 03:32:49 10° 137° (SE) 2,506 ? -38.5°
Sets 03:35:31 0° 125° (SE) 3,346 ? -38.1°
